FW9594 Weather Reports


time (UTC)temp
C
wind
direction
speed
KPH
gust
KPH
rain 1hr
cm
rain 24hr
cm
rain mn
cm
humidity
%
barometer
mb
20260506135232 11 58 8.0 19.3 0.00 0.08 0.08 82 1013.6
20260506134229 11 31 12.9 20.9 0.00 0.08 0.08 82 1013.4
20260506133230 11 18 11.3 19.3 0.00 0.08 0.08 82 1013.0
20260506132706 11 42 9.7 20.9 0.00 0.08 0.08 82 1013.2
20260506131229 11 59 9.7 22.5 0.00 0.08 0.08 82 1012.8
20260506130704 11 42 14.5 20.9 0.00 0.08 0.08 82 1012.8
20260506125222 11 41 11.3 25.7 0.00 0.08 0.08 82 1012.6
20260506124217 11 18 8.0 19.3 0.00 0.08 0.08 81 1012.6
20260506123217 11 69 9.7 22.5 0.00 0.08 0.08 81 1012.5
20260506122659 11 16 6.4 22.5 0.00 0.08 0.08 81 1012.5
20260506121216 11 32 12.9 22.5 0.00 0.08 0.08 80 1012.5
20260506120217 11 51 12.9 24.1 0.00 0.08 0.08 79 1012.4
20260506115216 12 55 12.9 20.9 0.00 0.08 0.08 78 1012.1
20260506114217 12 38 12.9 22.5 0.00 0.08 0.08 76 1011.9
20260506113216 12 47 8.0 20.9 0.00 0.08 0.08 75 1011.9
20260506112218 12 30 12.9 20.9 0.00 0.08 0.08 75 1011.6
20260506111219 12 351 11.3 25.7 0.00 0.08 0.08 75 1011.5
20260506110218 12 48 11.3 19.3 0.00 0.08 0.08 75 1011.3
20260506105218 13 49 11.3 19.3 0.00 0.08 0.08 75 1011.2
20260506104217 13 34 11.3 22.5 0.00 0.08 0.08 75 1011.0
20260506103218 13 37 12.9 19.3 0.00 0.08 0.08 75 1011.0
20260506102218 13 35 8.0 19.3 0.00 0.08 0.08 75 1010.8
20260506101218 13 28 8.0 20.9 0.00 0.08 0.08 75 1010.5
20260506100217 13 58 12.9 20.9 0.00 0.08 0.08 74 1010.3
20260506095218 13 44 11.3 20.9 0.00 0.08 0.08 75 1010.2
20260506094659 13 28 11.3 20.9 0.00 0.08 0.08 75 1010.2
20260506093217 13 47 14.5 22.5 0.00 0.08 0.08 75 1010.0
20260506092217 13 45 8.0 19.3 0.00 0.08 0.08 76 1010.1
20260506091217 13 38 9.7 17.7 0.00 0.08 0.08 76 1009.9
20260506090703 13 3 8.0 16.1 0.00 0.08 0.08 77 1009.9
20260506085217 13 25 6.4 19.3 0.00 0.08 0.08 77 1009.8
20260506084218 13 37 11.3 19.3 0.00 0.08 0.08 76 1009.6
20260506083218 13 55 9.7 19.3 0.00 0.08 0.08 77 1009.5
20260506082218 14 41 6.4 14.5 0.00 0.08 0.08 78 1009.6
20260506081218 13 55 6.4 16.1 0.00 0.08 0.08 78 1009.5
20260506080219 14 61 6.4 14.5 0.08 0.08 0.08 78 1009.5
20260506073218 14 59 4.8 11.3 0.08 0.00 0.08 79 1008.8
20260506072217 14 24 3.2 14.5 0.08 0.00 0.08 78 1008.9
20260506071218 14 59 6.4 11.3 0.08 0.00 0.08 79 1009.0
20260506070217 15 38 8.0 17.7 0.00 0.00 0.00 76 1009.1
20260506062217 15 35 11.3 20.9 0.00 0.00 0.00 78 1008.9
20260506061655 15 39 12.9 20.9 0.00 0.00 0.00 77 1009.1
20260506060721 15 30 9.7 11.3 0.00 0.00 0.00 78 1009.1
20260506051218 16 45 11.3 24.1 0.00 0.00 0.00 78 1009.2
20260506050217 16 42 8.0 20.9 0.00 0.00 0.00 78 1009.2
20260506044218 16 23 12.9 24.1 0.00 0.00 0.00 78 1009.0
20260506043217 16 51 11.3 24.1 0.00 0.00 0.00 77 1009.1
20260506042702 16 42 14.5 27.4 0.00 0.00 0.00 77 1009.0
20260506041218 17 41 12.9 24.1 0.00 0.00 0.00 77 1008.9
20260506040217 17 55 9.7 20.9 0.00 0.00 0.00 76 1008.8
20260506035652 17 25 14.5 19.3 0.00 0.00 0.00 76 1008.4
20260506034708 17 16 11.3 22.5 0.00 0.00 0.00 77 1008.2
20260506033216 18 51 9.7 22.5 0.00 0.00 0.00 76 1008.0
20260506032216 18 350 11.3 19.3 0.00 0.00 0.00 76 1008.0
20260506031216 18 38 14.5 24.1 0.00 0.00 0.00 75 1008.0
20260506030216 19 49 11.3 19.3 0.00 0.00 0.00 75 1007.7
20260506025659 19 52 9.7 20.9 0.00 0.00 0.00 75 1007.6
20260506024214 20 25 9.7 19.3 0.00 0.00 0.00 74 1007.6
20260506023215 20 34 11.3 19.3 0.00 0.00 0.00 74 1007.2
20260506022215 20 31 9.7 17.7 0.00 0.00 0.00 73 1006.8
20260506021701 20 345 6.4 16.1 0.00 0.00 0.00 72 1006.5
20260506020215 20 47 6.4 17.7 0.00 0.00 0.00 72 1006.6
20260506015215 20 42 12.9 19.3 0.00 0.00 0.00 71 1006.0
20260506014648 20 32 8.0 17.7 0.00 0.00 0.00 71 1006.0
20260506013215 20 51 8.0 20.9 0.00 0.00 0.00 71 1005.8
20260506012214 20 51 12.9 20.9 0.00 0.00 0.00 70 1005.7
20260506011216 21 44 11.3 22.5 0.00 0.00 0.00 69 1005.9
20260506010659 21 8 9.7 14.5 0.00 0.00 0.00 69 1005.6
20260506005215 22 45 8.0 17.7 0.00 0.00 0.00 67 1005.5
20260506004216 22 37 9.7 19.3 0.00 0.00 0.00 68 1004.9
20260506003216 22 45 8.0 14.5 0.00 0.00 0.00 68 1004.7
20260506002215 22 31 9.7 17.7 0.00 0.00 0.00 66 1004.6
20260506001654 23 20 12.9 25.7 0.00 0.00 0.00 66 1004.4
20260506000702 23 35 16.1 27.4 0.00 0.00 0.00 66 1004.5
20260505235217 24 58 12.9 22.5 0.00 0.00 0.00 64 1004.4
20260505234217 25 25 16.1 27.4 0.00 0.00 0.00 63 1004.1
20260505233654 25 298 4.8 17.7 0.00 0.00 0.00 62 1004.0
20260505232217 26 47 9.7 25.7 0.00 0.00 0.00 61 1004.2
20260505231218 27 51 8.0 22.5 0.00 0.00 0.00 61 1003.8
20260505230217 27 68 8.0 20.9 0.00 0.00 0.00 59 1003.8
20260505225217 27 344 6.4 19.3 0.00 0.00 0.00 58 1003.6
20260505224217 28 28 6.4 17.7 0.00 0.00 0.00 57 1003.3
20260505223216 28 285 4.8 19.3 0.00 0.00 0.00 56 1003.3
20260505222217 29 38 6.4 19.3 0.00 0.00 0.00 51 1003.1
20260505221217 30 44 9.7 16.1 0.00 0.00 0.00 49 1003.0
20260505220216 30 290 6.4 17.7 0.00 0.00 0.00 48 1002.8
20260505215217 30 24 8.0 20.9 0.00 0.00 0.00 50 1002.9
20260505214216 31 54 11.3 22.5 0.00 0.00 0.00 45 1003.0
20260505213217 32 293 8.0 11.3 0.00 0.00 0.00 51 1002.8
20260505212218 32 309 6.4 14.5 0.00 0.00 0.00 49 1002.9
20260505211217 32 272 6.4 14.5 0.00 0.00 0.00 49 1003.1
20260505210218 32 296 8.0 20.9 0.00 0.00 0.00 49 1003.1
20260505205216 32 274 8.0 17.7 0.00 0.00 0.00 50 1003.3
20260505204217 32 282 8.0 19.3 0.00 0.00 0.00 53 1003.2
20260505203218 32 290 6.4 11.3 0.00 0.00 0.00 55 1003.4
20260505202216 32 293 9.7 16.1 0.00 0.00 0.00 53 1003.5
20260505201217 31 123 11.3 22.5 0.00 0.00 0.00 55 1003.6
20260505200216 31 245 6.4 16.1 0.00 0.00 0.00 56 1003.7
20260505195217 32 235 4.8 14.5 0.00 0.00 0.00 55 1003.6
20260505194216 31 271 6.4 19.3 0.00 0.00 0.00 56 1003.7
20260505193656 31 279 6.4 16.1 0.00 0.00 0.00 59 1003.8
20260505192217 31 286 4.8 11.3 0.00 0.00 0.00 59 1003.8
20260505191217 31 274 3.2 11.3 0.00 0.00 0.00 59 1003.7
20260505190216 31 195 3.2 14.5 0.00 0.00 0.00 58 1003.8
20260505185217 30 228 4.8 20.9 0.00 0.00 0.00 61 1003.7
20260505184216 29 173 4.8 16.1 0.00 0.00 0.00 63 1003.8
20260505183217 29 228 4.8 19.3 0.00 0.00 0.00 62 1004.0
20260505182217 29 271 4.8 14.5 0.00 0.00 0.00 63 1004.0
20260505181217 29 248 4.8 16.1 0.00 0.00 0.00 62 1003.8
20260505180217 29 189 4.8 16.1 0.00 0.00 0.00 63 1004.0
20260505180133 28 300 6.4 20.9 0.00 0.00 0.00 65 1004.0
20260505174217 28 219 4.8 16.1 0.00 0.00 0.00 65 1003.9
20260505174140 28 240 3.2 14.5 0.00 0.00 0.00 65 1003.9
20260505172216 28 276 3.2 14.5 0.00 0.00 0.00 68 1003.9
20260505171216 28 220 3.2 14.5 0.00 0.00 0.00 67 1003.9
20260505170217 27 202 3.2 14.5 0.00 0.00 0.00 68 1004.2
20260505165216 27 243 4.8 24.1 0.00 0.00 0.00 69 1004.0
20260505164216 27 106 4.8 16.1 0.00 0.00 0.00 68 1004.1
20260505163216 27 214 3.2 19.3 0.00 0.00 0.00 69 1003.9
20260505162216 26 235 4.8 14.5 0.00 0.00 0.00 70 1003.9
20260505161216 26 193 4.8 17.7 0.00 0.00 0.00 71 1003.8
20260505160217 26 281 3.2 11.3 0.00 0.00 0.00 72 1003.8
20260505152216 25 193 6.4 16.1 0.00 0.00 0.00 74 1003.7
20260505151215 25 224 4.8 17.7 0.00 0.00 0.00 74 1003.6
20260505150216 24 245 4.8 17.7 0.00 0.00 0.00 77 1003.8
20260505140214 22 266 3.2 16.1 0.00 0.00 0.00 81 1003.5